Regional Weather Roundup
Issued by NWS

Home | Current Version | Previous Version | Graphics & Text | Print | Product List | Glossary On
Versions: 1 2 3 4 5 6 7 8 9 10 11 12 13 14 15 16 17 18 19 20 21 22 23 24 25 26 27 28 29 30 31 32 33 34 35 36 37 38 39 40 41 42 43 44 45 46 47 48 49 50
000
ASUS43 KMPX 200901
RWRMN
WEATHER ROUNDUP FOR MINNESOTA
NATIONAL WEATHER SERVICE TWIN CITIES/CHANHASSEN MN
300 AM CST MON NOV 20 2017


NOTE: "FAIR" INDICATES FEW OR NO CLOUDS BELOW 12,000 FEET WITH NO
SIGNIFICANT WEATHER AND/OR OBSTRUCTIONS TO VISIBILITY. N/A MEANS
CURRENT SKY AND/OR WEATHER CONDITIONS ARE NOT AVAILABLE.

MNZ060>063-068>070-201000-
   Twin Cities Metro

CITY           SKY/WX    TMP DP  RH WIND       PRES   REMARKS
TWIN CITIES    PTCLDY    32  27  81 S5        29.76S WCI  27
ST PAUL        CLEAR     29  26  89 S5        29.77F WCI  24
CRYSTAL        CLOUDY    29  23  78 S3        29.74S
BLAINE         CLOUDY    32  27  80 S5        29.74S WCI  27
LAKEVILLE      CLEAR     28  27  93 S5        29.76S WCI  23
EDEN PRAIRIE   CLEAR     33  26  75 CALM      29.74F
SOUTH ST PAUL  CLEAR     29  25  85 CALM      29.76S
LAKE ELMO      FAIR      30  27  86 S3        29.77S
$$
MNZ001>005-007-008-013>017-022>024-027-028-201000-
   Northwest Minnesota

CITY           SKY/WX    TMP DP  RH WIND       PRES   REMARKS
BEMIDJI        CLOUDY    17  15  93 SE3       29.63F
HALLOCK        CLOUDY    25  21  86 SE13      29.54F WCI  13
ROSEAU         CLOUDY    21  18  86 SE6       29.59F WCI  14
WARROAD        CLOUDY    19  16  86 SE5       29.60F WCI  13
CROOKSTON      CLOUDY    23  21  93 SE8       29.59F WCI  14
FOSSTON        CLOUDY    25  23  93 SE7       29.60F WCI  17
DETROIT LAKES  CLOUDY    27  23  86 SE7       29.63F WCI  19
MOORHEAD       CLOUDY    25  19  80 SE9       29.62F WCI  15
PARK RAPIDS    CLOUDY    24  19  81 CALM      29.64F
MAHNOMEN       FAIR      26  22  85 S8        29.61F WCI  17
$$
MNZ006-009>011-018-025>026-201000-
   North Central Minnesota

CITY           SKY/WX    TMP DP  RH WIND       PRES   REMARKS
BAUDETTE       CLOUDY    16  12  84 SE8       29.61F WCI   5
FLAG ISLAND    CLOUDY    19  16  86 SE7       29.59F WCI  10
INTL FALLS     CLOUDY    14  10  84 E3        29.66F
WASKISH        CLOUDY    19  18  93 SE3       29.63F
BIG FORK       CLOUDY    16  12  86 CALM      29.65F
LONGVILLE      CLOUDY    16  16 100 CALM      29.67S
GRAND RAPIDS   CLOUDY    15  13  91 SE3       29.69F
CRANE LAKE     CLOUDY     9   9 100 CALM      29.70F
ORR            CLOUDY    16  12  86 CALM      29.64F
COOK           CLOUDY    12  10  92 CALM      29.67F
WALKER         FAIR      24  21  89 CALM      29.65S
$$
MNZ012-019>021-037-201000-
   Northeast Minnesota

CITY           SKY/WX    TMP DP  RH WIND       PRES   REMARKS
DULUTH         CLOUDY    20  19  96 SE5       29.69F WCI  13
ELY            CLOUDY    10   9  92 CALM      29.69S
HIBBING        CLOUDY    12  10  92 NW3       29.68F
EVELETH        CLOUDY    12   9  85 CALM      29.70S
DULUTH HARBOR  CLOUDY    25  19  80 CALM      29.74F
TWO HARBORS    PTCLDY    18  12  79 CALM      29.70F
SILVER BAY     PTCLDY    12  12 100 CALM      29.71F
GRAND MARAIS     N/A     20  16  84 N5        29.77F WCI  13
G MARAIS ARPRT CLOUDY     9   3  78 CALM      29.70F
$$
MNZ029>031-032-039>041-046>048-054>057-064-201000-
   West Central Minnesota

CITY           SKY/WX    TMP DP  RH WIND       PRES   REMARKS
FERGUS FALLS   CLOUDY    28  23  80 SE7       29.67F WCI  21
WHEATON        CLOUDY    28  21  74 SE8       29.66F WCI  20
MORRIS         CLOUDY    27  21  80 SE9       29.65F WCI  17
ALEXANDRIA     CLOUDY    27  23  85 S6        29.66F WCI  20
ELBOW LAKE     FAIR      28  24  84 SE6       29.65F WCI  21
WADENA         CLOUDY    21  19  93 CALM      29.66S
GLENWOOD       CLOUDY    27  25  93 S5        29.67F WCI  21
APPLETON       CLOUDY    30  25  80 S5        29.68F WCI  25
BENSON         CLOUDY    25  21  86 S6        29.69F WCI  18
ORTONVILLE     CLOUDY    27  21  80 MISG      29.66F
MADISON        CLOUDY    32  25  74 SE7       29.67F WCI  26
WILLMAR        FAIR      27  25  93 CALM      29.70F
$$
MNZ033>034-036-042>043-049>051-058-059-201000-
   Central Minnesota

CITY           SKY/WX    TMP DP  RH WIND       PRES   REMARKS
ST CLOUD       CLOUDY    25  23  92 S6        29.71F WCI  18
SAUK CENTRE    FAIR      26  23  87 SE5       29.68F WCI  20
PAYNESVILLE    CLOUDY    27  25  92 CALM      29.70F
AITKIN         CLOUDY    16  14  93 CALM      29.67F
PINE RIVER     CLOUDY    19  18  93 CALM      29.70F
BRAINERD       CLOUDY    22  19  89 CALM      29.68F
STAPLES        CLOUDY    21  21 100 SE3       29.66F
LONG PRAIRIE   FAIR      23  21  93 SE5       29.68F WCI  17
LITTLE FALLS   CLOUDY    28  21  74 CALM      29.69F
LITCHFIELD     CLOUDY    28  25  86 CALM      29.72F
BUFFALO        CLOUDY    26  23  88 CALM      29.74F
MAPLE LAKE     CLOUDY    28  26  92 S3        29.73F
HUTCHINSON     CLOUDY    28  24  87 CALM      29.73F
$$
MNZ037-044-045-052-053-201000-
   East Central Minnesota

CITY           SKY/WX    TMP DP  RH WIND       PRES   REMARKS
PRINCETON      CLOUDY    25  23  93 CALM      29.71F
MORA           CLOUDY    19  18  93 CALM      29.74F
CAMBRIDGE      CLOUDY    27  23  86 SE3       29.73F
RUSH CITY      CLOUDY    26  23  86 S3        29.73F
MOOSE LAKE     CLOUDY    18  14  86 CALM      29.70F
HINCKLEY       FAIR      19  19 100 CALM      29.72F
CLOQUET        CLOUDY    21  16  79 CALM      29.70F
MCGREGOR       CLOUDY    21  19  93 CALM      29.68F
$$
MNZ071>073-080-081-089-090-097-098-201000-
   Southwest Minnesota

CITY           SKY/WX    TMP DP  RH WIND       PRES   REMARKS
MONTEVIDEO     CLOUDY    30  25  80 SW7       29.69F WCI  23
GRANITE FALLS  CLOUDY    28  24  84 SE5       29.71F WCI  23
CANBY          CLOUDY    30  24  78 CALM      29.68F
MARSHALL       CLOUDY    32  24  72 SE3       29.69
REDWOOD FALLS  CLOUDY    26  20  77 S7        29.71F WCI  18
OLIVIA         CLOUDY    30  25  80 S6        29.70F WCI  24
PIPESTONE      CLOUDY    30  23  74 S6        29.69F WCI  24
WINDOM         CLEAR     30  18  59 S3        29.73F
WORTHINGTON    CLEAR     32  24  72 S10       29.73F WCI  24
JACKSON        CLEAR     32  27  80 S9        29.74F WCI  24
SLAYTON        CLEAR     30  23  75 S6        29.72F WCI  24
$$
MNZ065>067-074>077-082>085-091>093-201000-
   South Central Minnesota

CITY           SKY/WX    TMP DP  RH WIND       PRES   REMARKS
MANKATO        CLEAR     30  26  85 S9        29.76F WCI  22
NEW ULM        CLEAR     28  23  80 CALM      29.73F
ST JAMES       CLEAR     30  25  80 S8        29.75S WCI  23
FAIRMONT       CLEAR     25  22  88 S3        29.76F
GLENCOE        CLOUDY    31  27  86 S3        29.73F
FARIBAULT      CLEAR     30  27  86 S6        29.77S WCI  24
OWATONNA       CLEAR     32  27  80 S9        29.76F WCI  24
WASECA         CLEAR     32  28  86 S7        29.78F WCI  26
ALBERT LEA     CLEAR     34  25  69 S5        29.78F WCI  30
$$
MNZ078>079-086>088-094>096-201000-
   Southeast Minnesota

CITY           SKY/WX    TMP DP  RH WIND       PRES   REMARKS
ROCHESTER      CLEAR     29  26  89 S10       29.78F WCI  20
RED WING       CLEAR     28  23  80 SE3       29.77F
STANTON        CLEAR     34  28  79 S7        29.76S WCI  28
DODGE CENTER   PTCLDY    30  27  86 S8        29.77F WCI  23
WINONA         CLEAR     36  28  75 CALM      29.82F
PRESTON        CLEAR     31  26  81 S14       29.81F WCI  20
$$
ABBREVIATIONS USED IN REMARKS
   TC - TEMPERATURES IN CELSIUS
  WCI - WIND CHILL INDEX
   HX - HEAT INDEX
  VSB - VISIBILITY
$$




USA.gov is the U.S. government's official web portal to all federal, state and local government web resources and services.